Wind_Speed
4 4 2 2 1 1 2 2 3 5 6 7 8 9 9 9 9 9 9 10 10 10 9 8 7 7 8 8 8 8 7 7 7 7 7 7 7 7 6 5 5 4 4 3 2 1 1 2 3
5 4 3 2 1 0 1 1 3 5 5 6 8 8 9 9 9 9 9 9 10 10 9 8 8 8 8 8 8 8 7 7 7 7 7 7 7 7 7 6 6 5 4 3 2 0 1 2 3
6 5 4 3 1 2 1 1 2 4 4 5 6 7 9 9 9 8 9 10 10 9 8 8 8 9 8 8 8 7 7 8 8 7 7 7 7 7 7 6 6 5 4 3 2 1 1 1 2
7 6 4 3 2 2 2 2 3 3 4 5 6 7 9 9 8 8 9 10 9 8 8 8 8 8 8 8 8 7 8 8 9 8 8 7 7 7 6 6 6 5 4 3 2 2 2 2 2
7 6 5 3 3 3 3 3 3 4 3 5 6 7 8 8 8 8 9 9 9 8 8 8 8 8 8 7 7 7 7 8 9 8 8 8 8 8 7 7 6 5 4 4 3 2 2 3 3
8 7 6 5 5 4 4 3 3 4 5 6 7 6 7 7 7 8 9 9 9 9 9 9 8 8 7 7 7 8 8 8 9 9 8 9 8 8 8 7 6 5 4 3 3 3 3 3 4
8 8 7 6 6 5 5 5 4 3 4 6 6 6 7 7 7 7 8 9 9 9 9 9 9 8 7 7 7 8 8 9 10 9 9 9 8 8 8 6 5 5 4 4 3 4 3 4 4
9 9 8 7 8 6 5 5 4 4 5 5 5 6 6 7 6 6 8 9 9 10 9 9 9 8 8 8 8 8 9 10 10 10 9 9 8 8 7 5 5 5 5 4 4 4 4 5 6
10 9 9 8 8 7 7 7 6 5 5 5 5 6 6 7 7 6 7 8 9 9 9 9 9 9 9 8 9 9 9 10 10 10 10 9 8 7 6 5 5 6 6 5 5 5 5 6 6
11 10 9 10 9 9 9 9 8 6 6 6 5 6 7 7 7 7 6 8 8 8 9 9 9 10 9 9 9 9 10 10 10 11 10 9 8 7 6 6 6 6 6 6 6 6 6 6 6
12 11 11 10 11 11 11 10 9 7 7 7 6 6 7 7 7 8 7 7 7 8 9 9 9 9 10 9 9 9 10 10 10 11 10 9 8 7 7 6 6 6 6 6 6 6 6 6 7
13 12 12 12 12 12 12 11 10 9 8 7 7 7 7 6 7 8 7 7 7 8 9 9 9 9 9 10 10 10 10 10 11 11 10 9 9 8 7 7 7 7 6 6 6 6 6 7 7
14 13 13 14 14 13 13 12 10 9 9 8 8 7 7 7 8 8 8 7 8 8 8 8 9 9 10 10 10 10 11 11 11 12 11 10 9 8 7 7 7 6 6 7 7 7 7 7 8
15 15 15 15 15 15 14 13 11 9 9 8 8 7 7 8 8 8 8 8 7 7 8 8 8 9 10 10 10 11 11 11 11 11 11 10 9 8 7 7 7 7 7 8 8 8 8 8 8
17 17 17 16 16 17 15 13 12 11 10 10 10 8 8 8 8 8 7 8 9 8 8 9 9 9 9 10 11 11 11 11 11 11 11 10 9 8 8 7 7 7 7 8 9 9 9 9 8
19 19 18 18 17 18 17 14 14 13 12 12 12 10 9 9 8 8 8 9 10 9 8 9 9 10 10 10 11 12 12 12 11 11 10 9 8 8 8 8 7 7 8 8 9 9 9 8 8
22 21 20 19 19 19 18 16 16 15 14 13 12 12 11 10 9 9 9 10 11 10 9 9 9 10 10 11 11 12 13 12 11 10 9 9 9 8 8 8 7 8 8 8 8 8 8 8 8
23 22 21 21 21 21 20 18 18 17 16 15 14 13 12 11 10 10 10 11 11 11 9 9 9 10 11 11 12 12 12 12 11 10 9 9 9 8 8 7 7 7 8 8 8 7 7 8 9
24 23 22 22 23 23 21 20 19 19 18 17 15 14 13 12 11 11 11 11 11 11 10 10 10 10 11 11 12 12 12 11 11 11 10 10 9 9 8 7 7 7 7 7 7 7 7 8 9
24 23 22 22 24 24 23 22 21 21 19 18 17 16 14 13 12 12 11 11 11 12 11 11 10 11 11 12 12 12 12 12 11 11 11 10 10 9 8 8 8 8 7 7 7 7 8 8 8
24 23 22 23 25 25 25 23 23 21 20 19 18 17 15 14 13 13 13 12 12 11 11 11 10 11 12 13 12 13 12 12 12 12 12 11 10 9 9 9 9 9 8 7 8 7 8 8 8
24 23 23 24 25 26 26 25 23 22 21 19 19 18 17 15 14 14 13 12 11 11 11 11 11 12 13 13 13 13 13 13 12 12 12 11 11 10 10 10 9 9 9 9 9 8 8 8 8
24 25 25 25 26 27 26 26 22 21 20 19 18 18 17 17 16 15 15 14 13 12 12 12 12 12 14 15 15 14 14 14 14 12 12 11 11 11 11 11 10 10 10 10 10 9 9 9 9
26 26 27 27 27 28 26 26 23 21 19 19 19 19 19 18 17 17 16 15 15 14 14 13 13 14 15 15 16 15 15 15 14 13 12 12 11 11 11 11 11 11 11 11 11 10 11 11 10
28 27 28 28 29 28 26 27 24 21 20 20 20 19 18 17 16 16 16 16 16 16 16 15 14 15 16 16 16 16 15 15 14 14 14 13 12 12 12 12 12 12 13 12 12 11 11 12 11
28 28 28 28 28 27 27 27 24 22 21 20 20 19 18 17 16 16 15 16 16 16 16 16 15 16 17 17 17 17 16 15 15 15 14 13 13 13 13 12 12 12 13 13 12 12 13 13 12
27 28 27 28 28 28 27 26 24 23 21 21 20 19 18 18 17 16 15 15 16 17 16 16 16 16 17 17 16 15 15 15 15 14 14 13 13 13 12 12 12 13 13 11 11 12 13 13 13
28 28 29 29 29 29 28 26 24 23 22 20 20 20 20 18 17 16 16 16 16 17 16 16 16 17 17 17 17 15 15 15 15 15 14 13 13 13 13 12 13 13 12 11 11 12 13 14 14
28 29 30 30 31 30 29 26 23 22 21 21 20 19 20 19 18 17 16 17 17 17 17 17 18 18 18 17 16 15 15 15 16 15 14 14 13 13 13 13 12 12 12 12 11 11 12 13 13
29 29 30 31 31 30 30 26 23 22 21 21 20 20 20 19 18 18 17 18 17 17 18 17 18 18 19 17 16 15 14 15 15 15 15 14 14 13 13 12 12 12 12 12 12 12 12 13 14
Wind_Direction
216 219 219 241 251 111 53 45 52 42 41 34 28 29 26 25 24 19 15 12 10 9 7 8 11 15 16 16 15 12 9 7 4 3 2 1 359 356 351 348 350 347 344 347 10 51 161 184 191
230 233 241 256 233 220 26 33 34 35 35 32 28 28 26 22 23 17 11 8 4 3 4 11 14 13 13 13 12 10 7 4 1 359 357 354 350 349 348 347 343 341 345 347 349 1 165 178 189
231 230 238 248 254 275 285 350 20 28 31 31 26 25 23 15 14 11 8 5 4 2 6 13 15 12 13 12 9 7 4 0 357 354 351 347 346 346 344 342 342 339 337 332 326 299 255 211 201
226 224 234 237 266 285 293 321 344 359 17 25 18 16 18 14 11 9 9 7 6 7 10 9 6 6 7 6 3 1 360 359 356 355 352 349 345 341 338 333 335 337 330 320 302 287 255 239 231
224 227 235 248 263 290 297 307 328 340 355 17 15 17 18 15 13 9 8 6 7 9 10 5 4 4 2 360 1 360 359 356 354 351 349 345 341 336 330 322 321 321 320 313 304 288 268 254 247
230 235 241 253 259 282 300 308 330 353 357 5 5 19 21 15 10 6 7 8 8 8 9 9 7 1 1 2 3 3 359 355 352 350 346 341 338 333 326 313 307 308 308 302 299 288 272 253 249
234 236 239 244 255 279 297 303 312 326 356 6 10 17 18 9 4 6 8 9 9 8 8 8 5 2 5 4 3 1 357 354 350 349 346 341 340 336 330 318 306 305 303 292 288 281 270 259 252
236 238 236 246 253 263 279 288 298 313 334 349 360 4 3 6 2 3 7 9 10 12 11 10 12 9 5 1 356 354 352 349 345 343 340 338 337 336 334 323 308 306 301 292 285 273 265 261 252
236 234 234 239 245 253 264 271 278 290 314 330 341 347 351 358 360 356 2 3 6 12 12 14 17 14 9 4 359 356 354 351 345 343 338 335 331 328 326 320 310 302 296 288 284 275 264 260 257
236 232 231 235 243 255 260 269 274 288 310 325 329 336 340 345 347 343 350 355 1 6 8 10 13 13 10 6 2 358 355 353 349 345 340 333 330 324 318 313 309 297 289 284 283 276 268 262 259
236 230 232 236 244 254 258 264 275 287 306 316 321 324 331 336 335 336 338 345 355 359 1 5 8 7 4 1 358 355 353 351 351 350 347 338 331 326 315 307 301 297 288 282 280 275 270 266 259
234 232 235 238 244 251 256 265 273 281 300 308 316 316 317 325 325 326 330 337 347 354 357 358 358 357 354 353 351 350 351 348 346 346 345 340 332 322 317 310 302 293 286 285 281 278 269 267 260
238 238 239 242 246 251 259 266 271 278 290 301 306 309 311 318 322 321 323 328 338 347 354 354 357 353 348 345 345 344 345 344 341 340 341 338 334 321 314 305 298 288 281 283 280 273 269 268 261
241 242 244 246 247 252 258 264 270 275 281 287 293 296 301 311 317 316 318 323 329 335 343 342 345 345 343 340 340 340 337 337 336 336 336 334 330 328 323 305 295 289 281 278 272 266 270 270 265
240 241 244 246 247 252 256 259 265 267 273 279 285 285 285 296 308 313 316 316 326 326 328 331 335 335 334 336 335 333 332 333 332 332 331 329 324 321 319 309 297 289 285 281 269 264 268 265 261
239 240 243 248 249 251 255 256 258 264 270 276 282 283 281 290 298 307 308 309 314 317 317 320 323 326 327 328 330 328 326 327 328 327 325 325 321 319 316 307 299 290 284 277 271 266 267 260 257
241 241 243 247 249 252 255 256 256 262 266 272 277 280 281 287 292 298 302 306 308 310 307 313 317 320 322 322 323 325 323 322 322 322 323 322 320 315 312 306 297 292 287 280 273 270 265 259 255
244 244 244 245 249 252 255 256 255 259 264 269 272 276 280 282 289 291 295 301 304 307 306 309 311 312 315 316 320 319 320 318 317 318 318 316 316 313 310 308 301 295 289 282 275 272 269 259 256
246 246 246 246 249 252 256 256 256 258 261 264 269 273 278 280 284 289 292 295 297 299 301 304 304 305 307 310 314 317 317 312 311 313 306 309 308 307 303 301 301 299 292 283 276 274 269 261 258
245 246 246 246 248 252 254 255 256 259 259 261 265 270 276 280 284 286 288 291 291 291 294 295 301 304 304 305 308 312 313 315 311 311 312 307 302 300 296 293 293 295 290 282 274 272 273 269 258
247 247 246 247 248 252 253 252 255 259 259 260 263 269 272 276 280 284 287 288 287 289 291 289 296 302 303 304 304 307 307 310 311 309 307 302 296 289 286 284 286 288 284 280 276 273 275 269 262
248 247 246 246 248 249 251 252 252 258 261 263 266 268 270 273 274 277 279 281 285 286 285 282 290 296 299 299 302 304 305 302 303 305 303 295 286 280 282 281 281 281 282 275 270 270 277 270 268
246 246 246 246 247 248 251 254 251 253 257 261 264 266 267 268 269 269 270 274 278 281 280 283 287 291 295 298 298 298 301 301 298 296 297 292 284 277 278 279 277 278 277 270 267 267 268 265 269
244 245 247 246 247 248 249 252 252 251 254 256 260 263 265 264 264 262 262 267 272 277 280 285 285 289 293 295 296 294 296 299 298 293 293 292 285 276 276 279 279 276 275 270 267 264 264 263 266
242 244 247 246 247 248 247 250 252 250 253 256 258 259 260 260 262 259 258 264 269 273 278 282 283 287 291 291 292 293 292 296 296 292 291 289 286 279 277 279 278 275 272 270 267 265 262 263 266
242 244 246 248 249 248 247 249 251 252 253 255 256 256 257 257 258 258 258 261 265 271 276 279 280 285 287 288 290 289 288 292 295 293 290 288 286 283 279 279 277 274 272 268 266 264 262 265 268
239 242 245 247 250 250 249 251 253 253 254 255 255 255 256 257 258 260 262 261 265 269 275 275 275 279 285 286 287 288 288 289 293 290 287 284 283 280 279 279 278 278 276 267 263 265 264 265 266
237 239 241 245 249 252 252 253 255 255 255 255 254 255 257 259 260 260 262 265 267 270 271 272 274 278 281 284 288 287 286 287 289 288 284 280 278 277 279 276 278 280 279 276 270 269 267 266 266
236 237 240 245 250 252 254 254 256 256 255 256 255 256 258 260 261 257 260 265 267 268 269 270 270 274 280 284 285 285 284 285 287 285 280 278 276 275 276 275 277 279 277 278 276 276 272 273 273
237 239 242 246 250 253 255 255 255 256 256 255 255 257 259 260 257 255 258 265 270 272 270 271 273 276 277 281 282 282 282 284 284 281 277 274 273 273 274 274 275 276 276 276 279 281 279 276 276
Height
5890 5890 5891 5893 5894 5893 5892 5892 5892 5891 5890 5890 5890 5889 5889 5889 5889 5890 5888 5885 5885 5884 5883 5882 5881 5880 5880 5879 5878 5878 5878 5877 5877 5876 5876 5876 5875 5875 5874 5874 5874 5873 5873 5873 5873 5872 5872 5873 5875
5890 5891 5893 5893 5893 5893 5893 5892 5892 5892 5891 5891 5890 5889 5889 5888 5888 5888 5887 5886 5885 5884 5883 5882 5881 5880 5879 5879 5878 5878 5878 5877 5877 5876 5876 5875 5875 5874 5874 5873 5873 5873 5873 5873 5873 5873 5873 5874 5875
5890 5891 5893 5893 5893 5893 5893 5893 5892 5892 5892 5891 5890 5890 5890 5889 5889 5888 5887 5886 5885 5884 5883 5882 5881 5880 5879 5879 5878 5878 5877 5877 5876 5876 5875 5874 5874 5873 5873 5873 5872 5872 5872 5873 5872 5872 5873 5874 5875
5890 5892 5893 5893 5893 5893 5893 5892 5892 5892 5892 5891 5891 5891 5890 5889 5889 5888 5887 5886 5885 5884 5883 5882 5881 5880 5879 5879 5878 5878 5877 5877 5876 5875 5874 5874 5873 5873 5872 5872 5872 5872 5872 5872 5872 5872 5872 5873 5874
5890 5892 5892 5892 5892 5892 5892 5892 5892 5892 5892 5891 5891 5891 5890 5890 5889 5888 5887 5886 5885 5884 5883 5881 5881 5880 5879 5879 5878 5877 5877 5876 5875 5875 5874 5873 5872 5871 5871 5870 5870 5871 5871 5871 5872 5872 5872 5873 5874
5890 5891 5892 5892 5892 5892 5892 5892 5892 5892 5892 5891 5891 5891 5890 5890 5889 5888 5887 5886 5886 5884 5883 5881 5881 5880 5879 5878 5878 5877 5876 5875 5875 5874 5873 5872 5871 5870 5868 5867 5868 5869 5870 5871 5871 5872 5872 5872 5873
5890 5890 5890 5891 5891 5891 5891 5891 5891 5891 5891 5891 5891 5891 5890 5890 5889 5888 5888 5887 5886 5884 5882 5881 5880 5879 5879 5878 5877 5877 5876 5875 5874 5873 5872 5871 5870 5868 5865 5864 5866 5868 5869 5869 5870 5871 5871 5872 5872
5888 5890 5890 5890 5890 5890 5890 5890 5890 5891 5891 5891 5891 5891 5890 5890 5889 5888 5888 5887 5886 5884 5883 5881 5880 5879 5879 5878 5877 5876 5875 5874 5873 5872 5871 5870 5869 5867 5865 5864 5866 5867 5868 5868 5869 5870 5870 5870 5871
5887 5889 5889 5889 5889 5889 5889 5889 5890 5890 5891 5891 5890 5890 5890 5890 5889 5888 5888 5887 5886 5884 5883 5882 5880 5879 5878 5877 5877 5876 5875 5874 5872 5871 5870 5869 5868 5867 5866 5865 5866 5866 5867 5867 5868 5868 5869 5869 5870
5885 5887 5888 5888 5888 5888 5888 5888 5889 5889 5890 5890 5890 5890 5889 5889 5889 5888 5887 5886 5885 5884 5883 5882 5880 5879 5878 5877 5876 5875 5874 5873 5871 5870 5869 5868 5867 5866 5866 5865 5865 5865 5866 5866 5866 5867 5867 5867 5868
5884 5885 5886 5886 5886 5887 5887 5888 5888 5888 5888 5889 5889 5889 5888 5888 5888 5888 5887 5886 5885 5884 5883 5881 5880 5879 5878 5877 5875 5874 5873 5872 5870 5869 5868 5867 5866 5865 5864 5864 5864 5864 5864 5864 5865 5865 5865 5866 5867
5882 5883 5884 5884 5884 5885 5886 5886 5887 5887 5888 5888 5888 5887 5887 5888 5887 5887 5886 5886 5884 5883 5882 5881 5880 5878 5877 5876 5875 5874 5873 5871 5870 5868 5867 5865 5864 5864 5863 5863 5863 5863 5863 5863 5863 5863 5864 5864 5865
5880 5881 5882 5882 5883 5883 5884 5885 5886 5886 5886 5886 5886 5887 5887 5887 5886 5886 5885 5885 5884 5883 5881 5880 5879 5878 5877 5876 5874 5873 5872 5870 5869 5867 5866 5864 5863 5862 5862 5861 5861 5861 5861 5861 5862 5862 5862 5863 5863
5877 5878 5879 5880 5881 5881 5882 5884 5884 5884 5884 5885 5885 5886 5886 5886 5885 5885 5884 5884 5883 5881 5880 5880 5879 5877 5876 5875 5874 5872 5871 5869 5868 5866 5864 5863 5862 5861 5860 5860 5859 5859 5859 5860 5860 5860 5860 5861 5861
5874 5875 5877 5878 5878 5879 5880 5882 5883 5883 5883 5883 5884 5884 5884 5884 5883 5883 5882 5882 5881 5880 5879 5878 5877 5876 5875 5874 5872 5871 5869 5868 5866 5865 5863 5862 5861 5860 5859 5858 5858 5858 5857 5857 5858 5858 5858 5858 5859
5870 5872 5874 5875 5875 5876 5879 5880 5880 5880 5881 5881 5881 5882 5882 5882 5881 5881 5881 5881 5880 5879 5878 5877 5876 5875 5873 5872 5871 5869 5868 5866 5865 5863 5862 5860 5859 5858 5858 5857 5856 5856 5855 5855 5856 5856 5856 5856 5857
5867 5869 5870 5872 5872 5873 5875 5876 5878 5878 5878 5878 5879 5879 5880 5880 5880 5879 5879 5879 5878 5877 5876 5875 5874 5873 5872 5870 5869 5868 5866 5864 5863 5862 5860 5859 5858 5857 5856 5855 5854 5854 5854 5853 5853 5854 5854 5855 5855
5863 5865 5867 5868 5868 5869 5870 5873 5874 5875 5875 5875 5876 5877 5877 5877 5877 5877 5877 5876 5876 5875 5874 5873 5872 5871 5870 5869 5867 5866 5864 5863 5861 5860 5858 5857 5856 5855 5854 5854 5853 5852 5852 5851 5851 5852 5852 5853 5853
5858 5860 5862 5864 5864 5865 5867 5869 5870 5871 5872 5873 5873 5874 5874 5874 5874 5874 5874 5874 5873 5873 5872 5871 5870 5869 5868 5867 5865 5864 5862 5860 5859 5858 5856 5855 5854 5854 5853 5852 5851 5851 5850 5850 5850 5850 5850 5851 5851
5853 5856 5858 5860 5860 5861 5862 5865 5866 5867 5868 5870 5870 5870 5871 5871 5871 5871 5871 5871 5871 5870 5870 5869 5868 5867 5866 5865 5863 5861 5860 5858 5857 5855 5854 5853 5852 5852 5851 5850 5849 5849 5848 5848 5848 5848 5848 5848 5848
5849 5852 5854 5855 5855 5856 5858 5860 5862 5863 5864 5866 5867 5867 5867 5867 5868 5868 5868 5868 5867 5867 5867 5866 5866 5865 5864 5862 5861 5859 5858 5856 5855 5854 5852 5851 5850 5850 5849 5848 5847 5847 5847 5846 5846 5846 5846 5846 5847
5844 5847 5848 5849 5850 5851 5853 5855 5858 5858 5860 5862 5863 5863 5863 5864 5864 5864 5864 5864 5864 5864 5864 5863 5863 5862 5861 5860 5858 5857 5856 5854 5853 5851 5850 5849 5848 5847 5847 5846 5845 5845 5844 5844 5844 5844 5844 5844 5844
5839 5841 5842 5843 5844 5846 5848 5850 5853 5854 5856 5857 5859 5859 5859 5860 5860 5860 5861 5861 5861 5861 5860 5860 5859 5859 5858 5857 5855 5854 5853 5852 5850 5849 5848 5846 5845 5844 5844 5843 5843 5843 5842 5842 5842 5842 5842 5842 5842
5833 5835 5836 5837 5839 5841 5844 5845 5848 5850 5852 5853 5854 5854 5855 5855 5856 5856 5857 5857 5857 5857 5857 5857 5856 5856 5855 5854 5852 5851 5850 5849 5847 5846 5845 5844 5843 5842 5841 5841 5840 5840 5839 5839 5839 5839 5839 5839 5839
5827 5829 5831 5832 5833 5836 5839 5840 5843 5846 5847 5848 5849 5849 5850 5851 5851 5852 5853 5853 5853 5853 5853 5853 5852 5852 5851 5850 5849 5847 5846 5845 5844 5843 5842 5841 5840 5839 5838 5838 5838 5837 5836 5836 5836 5836 5836 5836 5836
5821 5823 5826 5827 5829 5831 5833 5834 5839 5841 5842 5843 5844 5845 5846 5847 5847 5848 5848 5849 5849 5849 5849 5849 5848 5848 5847 5846 5845 5844 5842 5842 5841 5840 5838 5837 5836 5836 5835 5835 5834 5834 5833 5833 5833 5833 5833 5833 5833
5815 5817 5820 5822 5823 5825 5827 5830 5833 5835 5837 5838 5839 5840 5841 5842 5843 5844 5844 5844 5844 5844 5844 5844 5843 5843 5843 5842 5841 5839 5839 5838 5837 5836 5835 5834 5833 5833 5832 5832 5831 5831 5830 5830 5830 5830 5830 5830 5830
5810 5812 5814 5815 5817 5819 5821 5824 5828 5830 5832 5834 5835 5836 5836 5838 5839 5839 5839 5839 5839 5839 5839 5839 5839 5838 5838 5837 5836 5835 5835 5834 5833 5833 5832 5831 5830 5830 5828 5828 5828 5827 5827 5827 5827 5826 5826 5826 5826
5803 5806 5808 5810 5811 5813 5816 5821 5823 5825 5827 5828 5830 5831 5832 5833 5834 5834 5834 5834 5834 5834 5834 5834 5833 5833 5833 5832 5832 5831 5830 5829 5829 5828 5828 5827 5827 5826 5826 5826 5825 5825 5824 5824 5824 5824 5823 5823 5823
5797 5800 5802 5804 5806 5808 5810 5817 5818 5820 5821 5823 5824 5825 5826 5827 5828 5829 5829 5830 5830 5829 5829 5828 5828 5828 5828 5827 5827 5827 5826 5825 5824 5824 5823 5823 5823 5823 5822 5822 5822 5822 5822 5821 5821 5820 5820 5820 5820